Powrót do katalogu

THORAD AGENA D DEB

AktywnyPO
NORAD 4950·DEBRIS·🇺🇸 United States

Wystrzelony Apr 8, 1970 z Vandenberg Space Force Base

Loading…

Następne Przeloty (najbliższe 24 godziny)

TLE

ŚwieżeSource: Space-Track

Epoka: Sep 14, 2026, 04:07 UTC

1 04950U 70025GL  26257.17165472  .00000194  00000-0  59304-3 0  9995
2 04950  99.8171 142.7115 0219689 174.5842 340.3040 13.10228406695159

Śledź THORAD AGENA D DEB w czasie rzeczywistym z AllMySat

Download on the App Store